• In Portugal
  • List of Countries
  • For 7 days
  • Water Temperature
  • Satellite Maps
  • Weather Map
  • Weather Widgets
  • user-avatar
    Login

    Hourly Weather Salta

    Today, 17 December, Sunday

    Time Temperature Precipitation Wind Pressure Humidity
    00:00 +25°C° 0 mm 1 mps 646 mmHg 62%
    01:00 +25°C° 0 mm 1 mps 646 mmHg 62%
    02:00 +25°C° 0 mm 1 mps 646 mmHg 61%
    03:00 +24°C° 0 mm 1 mps 646 mmHg 60%
    04:00 +24°C° 0 mm 1 mps 646 mmHg 59%
    05:00 +24°C° 0 mm 1 mps 646 mmHg 58%
    06:00 +26°C° 0 mm 1 mps 648 mmHg 51%
    07:00 +28°C° 0 mm 2 mps 649 mmHg 44%
    08:00 +31°C° 0 mm 2 mps 650 mmHg 37%
    09:00 +33°C° 0 mm 4 mps 651 mmHg 36%
    10:00 +33°C° 0 mm 5 mps 652 mmHg 35%
    11:00 +34°C° 0 mm 7 mps 654 mmHg 34%
    12:00 +33°C° 1.1 mm 6 mps 653 mmHg 42%
    13:00 +30°C° 1.1 mm 6 mps 653 mmHg 50%
    14:00 +28°C° 1.1 mm 5 mps 653 mmHg 58%
    15:00 +28°C° 0.4 mm 5 mps 653 mmHg 59%
    16:00 +27°C° 0.4 mm 5 mps 653 mmHg 60%
    17:00 +27°C° 0.4 mm 4 mps 653 mmHg 60%
    18:00 +25°C° 0.2 mm 4 mps 653 mmHg 65%
    19:00 +24°C° 0.2 mm 3 mps 654 mmHg 70%
    20:00 +21°C° 0.2 mm 2 mps 654 mmHg 75%
    21:00 +21°C° 0.3 mm 2 mps 654 mmHg 75%
    22:00 +20°C° 0.3 mm 2 mps 655 mmHg 76%
    23:00 +21°C° 0.3 mm 1 mps 655 mmHg 77%

    Tomorrow, 18 December, Monday

    Time Temperature Precipitation Wind Pressure Humidity
    00:00 +21°C° 0.2 mm 1 mps 655 mmHg 77%
    01:00 +21°C° 0.2 mm 1 mps 655 mmHg 78%
    02:00 +20°C° 0.2 mm 1 mps 654 mmHg 78%
    03:00 +20°C° 0.1 mm 1 mps 654 mmHg 79%
    04:00 +20°C° 0.1 mm 1 mps 654 mmHg 80%
    05:00 +19°C° 0.1 mm 1 mps 653 mmHg 80%
    06:00 +20°C° 0.4 mm 1 mps 654 mmHg 77%
    07:00 +20°C° 0.4 mm 1 mps 654 mmHg 74%
    08:00 +21°C° 0.4 mm 1 mps 655 mmHg 70%
    09:00 +21°C° 0.5 mm 1 mps 655 mmHg 67%
    10:00 +22°C° 0.5 mm 1 mps 655 mmHg 64%
    11:00 +23°C° 0.5 mm 2 mps 655 mmHg 60%
    12:00 +24°C° 0.5 mm 1 mps 655 mmHg 59%
    13:00 +25°C° 0.5 mm 1 mps 654 mmHg 57%
    14:00 +26°C° 0.5 mm 1 mps 654 mmHg 55%
    15:00 +26°C° 0.2 mm 1 mps 653 mmHg 55%
    16:00 +25°C° 0.2 mm 1 mps 652 mmHg 56%
    17:00 +25°C° 0.2 mm 2 mps 652 mmHg 56%
    18:00 +24°C° 0.2 mm 1 mps 652 mmHg 61%
    19:00 +23°C° 0.2 mm 1 mps 652 mmHg 65%
    20:00 +22°C° 0.2 mm 1 mps 652 mmHg 70%
    21:00 +21°C° 0 mm 1 mps 652 mmHg 71%
    22:00 +21°C° 0 mm 1 mps 652 mmHg 73%
    23:00 +21°C° 0 mm 1 mps 653 mmHg 75%

    Day after tomorrow, 19 December, Tuesday

    Time Temperature Precipitation Wind Pressure Humidity
    00:00 +21°C° 0.1 mm 1 mps 652 mmHg 76%
    01:00 +20°C° 0.1 mm 1 mps 652 mmHg 78%
    02:00 +20°C° 0.1 mm 1 mps 651 mmHg 80%
    03:00 +20°C° 0.2 mm 1 mps 651 mmHg 80%
    04:00 +20°C° 0.2 mm 1 mps 651 mmHg 81%
    05:00 +20°C° 0.2 mm 1 mps 651 mmHg 82%
    06:00 +21°C° 0.1 mm 1 mps 651 mmHg 78%
    07:00 +22°C° 0.1 mm 1 mps 652 mmHg 73%
    08:00 +23°C° 0.1 mm 1 mps 653 mmHg 68%
    09:00 +25°C° 0 mm 2 mps 653 mmHg 63%
    10:00 +26°C° 0 mm 2 mps 653 mmHg 58%
    11:00 +28°C° 0 mm 3 mps 653 mmHg 53%
    12:00 +29°C° 0.2 mm 3 mps 652 mmHg 51%
    13:00 +29°C° 0.2 mm 3 mps 652 mmHg 50%
    14:00 +30°C° 0.2 mm 3 mps 651 mmHg 48%
    15:00 +29°C° 0.7 mm 3 mps 651 mmHg 51%
    16:00 +28°C° 0.7 mm 3 mps 650 mmHg 54%
    17:00 +28°C° 0.7 mm 2 mps 650 mmHg 57%
    18:00 +26°C° 1.1 mm 2 mps 650 mmHg 63%
    19:00 +25°C° 1.1 mm 1 mps 650 mmHg 69%
    20:00 +24°C° 1.1 mm 1 mps 650 mmHg 75%
    21:00 +23°C° 0.2 mm 1 mps 650 mmHg 76%
    22:00 +23°C° 0.2 mm 1 mps 651 mmHg 77%
    23:00 +20°C° 0.2 mm 0 mps 651 mmHg 78%

    20 December, Wednesday

    Time Temperature Precipitation Wind Pressure Humidity
    00:00 +22°C° 0.1 mm 1 mps 651 mmHg 79%
    01:00 +22°C° 0.1 mm 1 mps 650 mmHg 80%
    02:00 +21°C° 0.1 mm 1 mps 650 mmHg 81%
    03:00 +21°C° 0.1 mm 1 mps 650 mmHg 81%
    04:00 +21°C° 0.1 mm 1 mps 650 mmHg 82%
    05:00 +21°C° 0.1 mm 1 mps 650 mmHg 82%
    06:00 +22°C° 0.2 mm 1 mps 650 mmHg 79%
    07:00 +23°C° 0.2 mm 1 mps 651 mmHg 75%
    08:00 +24°C° 0.2 mm 1 mps 651 mmHg 72%
    09:00 +25°C° 0.2 mm 1 mps 652 mmHg 66%
    10:00 +27°C° 0.2 mm 2 mps 652 mmHg 61%
    11:00 +28°C° 0.2 mm 2 mps 652 mmHg 56%
    12:00 +29°C° 0.3 mm 2 mps 651 mmHg 53%
    13:00 +30°C° 0.3 mm 2 mps 651 mmHg 51%
    14:00 +30°C° 0.3 mm 3 mps 650 mmHg 48%
    15:00 +29°C° 0.6 mm 3 mps 649 mmHg 53%
    16:00 +28°C° 0.6 mm 3 mps 649 mmHg 59%
    17:00 +27°C° 0.6 mm 3 mps 648 mmHg 64%
    18:00 +26°C° 0.4 mm 2 mps 648 mmHg 69%
    19:00 +25°C° 0.4 mm 1 mps 648 mmHg 74%
    20:00 +23°C° 0.4 mm 1 mps 648 mmHg 80%
    21:00 +23°C° 0.2 mm 1 mps 648 mmHg 80%
    22:00 +23°C° 0.2 mm 1 mps 649 mmHg 81%
    23:00 +22°C° 0.2 mm 1 mps 649 mmHg 81%

    21 December, Thursday

    Time Temperature Precipitation Wind Pressure Humidity
    00:00 +22°C° 0.1 mm 1 mps 649 mmHg 81%
    01:00 +22°C° 0.1 mm 1 mps 648 mmHg 81%
    02:00 +22°C° 0.1 mm 1 mps 648 mmHg 81%
    03:00 +22°C° 0 mm 1 mps 648 mmHg 81%
    04:00 +21°C° 0 mm 1 mps 648 mmHg 82%
    05:00 +21°C° 0 mm 1 mps 648 mmHg 83%
    06:00 +23°C° 0 mm 1 mps 648 mmHg 76%
    07:00 +24°C° 0 mm 1 mps 649 mmHg 69%
    08:00 +26°C° 0 mm 1 mps 650 mmHg 62%
    09:00 +28°C° 0 mm 1 mps 650 mmHg 56%
    10:00 +30°C° 0 mm 2 mps 650 mmHg 49%
    11:00 +32°C° 0 mm 2 mps 651 mmHg 43%
    12:00 +32°C° 0 mm 2 mps 650 mmHg 43%
    13:00 +33°C° 0 mm 3 mps 649 mmHg 42%
    14:00 +33°C° 0 mm 4 mps 649 mmHg 42%
    15:00 +31°C° 0.4 mm 3 mps 648 mmHg 48%
    16:00 +29°C° 0.4 mm 3 mps 648 mmHg 54%
    17:00 +28°C° 0.4 mm 3 mps 647 mmHg 60%
    18:00 +27°C° 0.5 mm 2 mps 647 mmHg 67%
    19:00 +25°C° 0.5 mm 1 mps 647 mmHg 74%
    20:00 +24°C° 0.5 mm 1 mps 647 mmHg 81%
    21:00 +23°C° 0.5 mm 1 mps 648 mmHg 83%
    22:00 +23°C° 0.5 mm 1 mps 648 mmHg 84%
    23:00 +22°C° 0.5 mm 1 mps 648 mmHg 86%

    22 December, Friday

    Time Temperature Precipitation Wind Pressure Humidity
    00:00 +22°C° 0.2 mm 1 mps 648 mmHg 85%
    01:00 +22°C° 0.2 mm 1 mps 647 mmHg 84%
    02:00 +20°C° 0.2 mm 0 mps 647 mmHg 83%
    03:00 +20°C° 0.1 mm 0 mps 647 mmHg 83%
    04:00 +20°C° 0.1 mm 0 mps 647 mmHg 83%
    05:00 +20°C° 0.1 mm 0 mps 647 mmHg 83%
    06:00 +23°C° 0 mm 1 mps 647 mmHg 77%
    07:00 +25°C° 0 mm 1 mps 648 mmHg 71%
    08:00 +26°C° 0 mm 1 mps 649 mmHg 65%
    09:00 +28°C° 0 mm 2 mps 649 mmHg 58%
    10:00 +30°C° 0 mm 2 mps 649 mmHg 51%
    11:00 +32°C° 0 mm 2 mps 649 mmHg 44%
    12:00 +32°C° 0.3 mm 2 mps 648 mmHg 44%
    13:00 +33°C° 0.3 mm 3 mps 648 mmHg 43%
    14:00 +34°C° 0.3 mm 3 mps 647 mmHg 42%
    15:00 +33°C° 0.9 mm 3 mps 647 mmHg 47%
    16:00 +31°C° 0.9 mm 3 mps 646 mmHg 53%
    17:00 +30°C° 0.9 mm 3 mps 646 mmHg 58%
    18:00 +28°C° 1.8 mm 3 mps 646 mmHg 66%
    19:00 +26°C° 1.8 mm 2 mps 646 mmHg 74%
    20:00 +25°C° 1.8 mm 1 mps 646 mmHg 82%
    21:00 +24°C° 1.6 mm 1 mps 647 mmHg 83%
    22:00 +24°C° 1.6 mm 1 mps 647 mmHg 83%
    23:00 +24°C° 1.6 mm 1 mps 647 mmHg 84%
    Show more